Tracking 18852 objects as of 23-Nov-2017
HD Live streaming from Space Station
objects crossing your sky now

FENGYUN 1C DEB

Track FENGYUN 1C DEB now!
10-day predictions


NORAD ID: 30286
Int'l Code: 1999-025YX
Perigee: 813.7 km
Apogee: 906.9 km
Inclination: 98.9 °
Period: 102.0 minutes
Semi major axis: 7231 km
RCS: 0.069 m2 (small)
Launch date: May 10, 1999
Source: People's Republic of China (PRC)
Launch site: Taiyaun Space Center, China (TSC)

Note: This is SATELLITE DEBRIS
aabbcc
Your satellite tracking list
Your tracking list is empty




NASA's NSSDC Master Catalog

Two Line Element Set (TLE):
1 30286U 99025YX  17327.57475560 -.00000002  00000-0  22681-4 0  9999
2 30286  98.9095 351.8716 0064447 200.3237 276.8537 14.11826348559616
Source of the keplerian elements: AFSPC